QPF
0.02 0.03 0.05 0.03 0.03 0.03 0.02 0.02 0.02 0.02 0.02 0.02 0.01 0.01 0.02 0.02 0.02 0.02 0.02 0.01 0.01 0.01 0.01 0.01 0.01 0.01 0.01 0.01 0.01 0.01 0.02 0.02 0.02 0.03 0.04 0.05 0.04 0.03 0.03 0.04 0.05 0.05 0.05 0.05
0.03 0.02 0.02 0.03 0.03 0.04 0.04 0.03 0.03 0.03 0.02 0.03 0.02 0.01 0.02 0.02 0.02 0.01 0.01 0.01 0.01 0.01 0.02 0.02 0.02 0.02 0.02 0.02 0.01 0.01 0.02 0.02 0.02 0.02 0.03 0.03 0.05 0.05 0.04 0.03 0.03 0.04 0.04 0.04
0.02 0.02 0.02 0.03 0.04 0.05 0.05 0.04 0.03 0.04 0.02 0.03 0.04 0.03 0.02 0.02 0.02 0.02 0.01 0.02 0.02 0.01 0.01 0.02 0.02 0.03 0.03 0.03 0.02 0.02 0.02 0.02 0.03 0.04 0.04 0.03 0.03 0.03 0.04 0.03 0.03 0.03 0.04 0.05
0.02 0.02 0.02 0.02 0.03 0.04 0.05 0.04 0.03 0.04 0.04 0.06 0.05 0.05 0.03 0.02 0.02 0.02 0.02 0.02 0.03 0.02 0.01 0.02 0.02 0.02 0.02 0.02 0.02 0.03 0.03 0.03 0.04 0.04 0.03 0.03 0.03 0.04 0.04 0.04 0.04 0.05 0.06 0.07
0.02 0.01 0.02 0.03 0.02 0.02 0.04 0.04 0.04 0.04 0.04 0.06 0.05 0.05 0.04 0.02 0.02 0.02 0.02 0.02 0.02 0.03 0.02 0.02 0.03 0.02 0.02 0.01 0.02 0.01 0.01 0.02 0.03 0.04 0.04 0.04 0.03 0.03 0.03 0.02 0.03 0.04 0.04 0.05
0.02 0.01 0.01 0.02 0.02 0.02 0.03 0.05 0.06 0.06 0.06 0.07 0.05 0.04 0.04 0.02 0.02 0.02 0.02 0.03 0.02 0.02 0.02 0.02 0.03 0.03 0.02 0.02 0.01 0.01 0.01 0.01 0.01 0.01 0.02 0.02 0.02 0.02 0.02 0.02 0.02 0.02 0.03 0.03
0.02 0.02 0.01 0.02 0.03 0.02 0.02 0.04 0.08 0.09 0.08 0.06 0.03 0.04 0.05 0.03 0.01 0.01 0.02 0.02 0.03 0.01 0.01 0.02 0.02 0.03 0.03 0.03 0.02 0.02 0.02 0.01 0.01 0.01 0.01 0.02 0.03 0.03 0.03 0.03 0.02 0.02 0.02 0.03
0.02 0.02 0.02 0.02 0.03 0.03 0.02 0.03 0.05 0.06 0.05 0.03 0.02 0.03 0.04 0.03 0.01 0.01 0.01 0.02 0.03 0.03 0.02 0.02 0.02 0.03 0.05 0.05 0.03 0.02 0.02 0.02 0.02 0.02 0.02 0.03 0.04 0.04 0.04 0.04 0.04 0.04 0.04 0.04
0.02 0.02 0.01 0.01 0.02 0.03 0.03 0.03 0.04 0.04 0.03 0.03 0.03 0.03 0.03 0.03 0.02 0.01 0.01 0.01 0.03 0.03 0.02 0.02 0.02 0.03 0.03 0.04 0.05 0.04 0.03 0.03 0.03 0.03 0.03 0.04 0.06 0.06 0.05 0.05 0.06 0.05 0.05 0.05
0.02 0.02 0.01 0.01 0.01 0.02 0.02 0.02 0.02 0.03 0.03 0.03 0.03 0.02 0.02 0.02 0.02 0.02 0.02 0.01 0.02 0.02 0.02 0.02 0.02 0.03 0.03 0.03 0.03 0.04 0.04 0.04 0.04 0.04 0.04 0.04 0.05 0.05 0.05 0.06 0.07 0.06 0.05 0.05
0.01 0.01 0.02 0.01 0.02 0.02 0.02 0.01 0.02 0.02 0.02 0.02 0.02 0.01 0.01 0.01 0.01 0.02 0.02 0.02 0.02 0.01 0.01 0.01 0.02 0.01 0.02 0.02 0.02 0.03 0.03 0.03 0.03 0.03 0.04 0.04 0.04 0.03 0.03 0.03 0.04 0.03 0.03 0.02
0.01 0.01 0.01 0.01 0.01 0.01 0.01 0.01 0.01 0.02 0.02 0.01 0.01 0.01 0.01 0.01 0.01 0.01 0.01 0.01 0.02 0.01 0.01 0.01 0.01 0.01 0.01 0.01 0.01 0.01 0.01 0.01 0.01 0.02 0.02 0.02 0.02 0.02 0.02 0.02 0.02 0.02 0.02 0.01
0.01 0.01 0.01 0.01 0.01 0.00 0.01 0.01 0.01 0.01 0.01 0.01 0.00 0.01 0.01 0.01 0.01 0.01 0.01 0.01 0.01 0.01 0.01 0.01 0.01 0.00 0.00 0.00 0.00 0.00 0.01 0.01 0.01 0.01 0.01 0.01 0.01 0.01 0.01 0.01 0.01 0.02 0.02 0.01
0.01 0.01 0.00 0.00 0.00 0.00 0.00 0.01 0.01 0.01 0.02 0.01 0.00 0.00 0.01 0.00 0.00 0.00 0.00 0.00 0.01 0.01 0.01 0.01 0.01 0.01 0.00 0.00 0.00 0.00 0.01 0.01 0.01 0.01 0.01 0.01 0.01 0.01 0.01 0.01 0.01 0.01 0.01 0.01
0.00 0.00 0.00 0.00 0.00 0.00 0.00 0.00 0.00 0.01 0.01 0.01 0.00 0.00 0.00 0.00 0.00 0.00 0.00 0.00 0.00 0.00 0.00 0.00 0.01 0.01 0.01 0.01 0.01 0.01 0.01 0.01 0.01 0.01 0.02 0.02 0.01 0.01 0.01 0.01 0.01 0.01 0.01 0.01
0.00 0.00 0.00 0.00 0.00 0.00 0.00 0.00 0.00 0.00 0.00 0.00 0.00 0.00 0.00 0.00 0.00 0.00 0.00 0.01 0.01 0.00 0.00 0.01 0.01 0.01 0.01 0.01 0.01 0.01 0.01 0.01 0.02 0.02 0.02 0.02 0.02 0.02 0.02 0.02 0.01 0.01 0.01 0.01
0.00 0.00 0.00 0.00 0.00 0.00 0.00 0.00 0.00 0.00 0.00 0.00 0.00 0.00 0.00 0.00 0.00 0.01 0.01 0.01 0.01 0.01 0.01 0.02 0.02 0.02 0.02 0.01 0.02 0.02 0.02 0.02 0.02 0.02 0.03 0.02 0.02 0.02 0.02 0.01 0.01 0.01 0.01 0.01
0.00 0.00 0.00 0.00 0.01 0.00 0.00 0.01 0.00 0.00 0.00 0.00 0.00 0.00 0.00 0.00 0.01 0.01 0.01 0.01 0.01 0.01 0.01 0.02 0.02 0.02 0.02 0.02 0.03 0.03 0.03 0.03 0.02 0.03 0.03 0.03 0.03 0.02 0.01 0.01 0.01 0.01 0.01 0.01
0.00 0.00 0.00 0.00 0.00 0.00 0.00 0.00 0.00 0.00 0.00 0.00 0.00 0.00 0.00 0.00 0.00 0.01 0.01 0.01 0.01 0.02 0.02 0.02 0.03 0.02 0.02 0.02 0.02 0.02 0.02 0.02 0.02 0.01 0.02 0.02 0.01 0.01 0.01 0.01 0.01 0.01 0.01 0.01
0.00 0.00 0.00 0.00 0.00 0.01 0.00 0.00 0.00 0.00 0.00 0.00 0.00 0.00 0.00 0.00 0.00 0.00 0.01 0.01 0.01 0.01 0.01 0.02 0.02 0.02 0.02 0.02 0.02 0.02 0.01 0.01 0.02 0.01 0.01 0.01 0.01 0.01 0.01 0.01 0.01 0.01 0.01 0.02
0.00 0.00 0.00 0.00 0.00 0.00 0.00 0.00 0.00 0.00 0.00 0.00 0.00 0.00 0.00 0.00 0.00 0.00 0.00 0.00 0.01 0.01 0.01 0.01 0.01 0.02 0.02 0.02 0.02 0.02 0.01 0.01 0.01 0.01 0.01 0.01 0.01 0.01 0.01 0.01 0.01 0.01 0.01 0.02
0.00 0.00 0.00 0.00 0.00 0.00 0.00 0.00 0.00 0.00 0.00 0.00 0.00 0.00 0.00 0.00 0.00 0.00 0.00 0.00 0.00 0.00 0.01 0.01 0.01 0.02 0.02 0.02 0.02 0.01 0.01 0.01 0.01 0.01 0.01 0.01 0.01 0.01 0.01 0.01 0.01 0.01 0.01 0.02
0.00 0.00 0.00 0.00 0.00 0.00 0.00 0.00 0.00 0.00 0.00 0.00 0.00 0.00 0.00 0.00 0.00 0.00 0.00 0.01 0.00 0.00 0.01 0.01 0.01 0.02 0.02 0.01 0.01 0.01 0.01 0.01 0.01 0.01 0.01 0.01 0.01 0.02 0.02 0.02 0.02 0.02 0.02 0.02
0.00 0.00 0.00 0.00 0.00 0.00 0.00 0.00 0.00 0.00 0.00 0.00 0.00 0.00 0.00 0.00 0.00 0.00 0.00 0.01 0.01 0.01 0.01 0.01 0.01 0.01 0.01 0.01 0.01 0.01 0.01 0.01 0.01 0.01 0.01 0.01 0.01 0.01 0.01 0.01 0.02 0.02 0.02 0.02
0.00 0.00 0.00 0.00 0.00 0.00 0.00 0.00 0.00 0.00 0.00 0.00 0.00 0.00 0.00 0.00 0.00 0.00 0.00 0.00 0.01 0.01 0.01 0.01 0.01 0.01 0.01 0.01 0.01 0.01 0.01 0.01 0.01 0.01 0.01 0.01 0.01 0.01 0.01 0.01 0.01 0.01 0.01 0.01
0.00 0.00 0.00 0.00 0.00 0.00 0.00 0.00 0.00 0.00 0.00 0.00 0.00 0.00 0.00 0.00 0.00 0.00 0.00 0.00 0.00 0.01 0.01 0.01 0.01 0.01 0.01 0.01 0.01 0.01 0.01 0.01 0.01 0.01 0.01 0.01 0.01 0.01 0.01 0.00 0.00 0.00 0.00 0.00
MSLP
1025.14 1025.09 1025.02 1024.91 1024.76 1024.55 1024.23 1023.80 1023.24 1022.54 1021.72 1020.84 1019.96 1019.17 1018.53 1018.13 1017.99 1018.10 1018.44 1018.94 1019.50 1020.04 1020.48 1020.78 1020.91 1020.92 1020.84 1020.74 1020.72 1020.82 1021.10 1021.56 1022.19 1022.94 1023.74 1024.53 1025.23 1025.79 1026.18 1026.41 1026.49 1026.46 1026.36 1026.24
1025.80 1025.70 1025.55 1025.36 1025.12 1024.83 1024.48 1024.04 1023.50 1022.86 1022.13 1021.35 1020.58 1019.90 1019.37 1019.07 1019.03 1019.23 1019.66 1020.23 1020.86 1021.45 1021.91 1022.20 1022.29 1022.21 1022.02 1021.81 1021.67 1021.66 1021.86 1022.28 1022.90 1023.66 1024.51 1025.34 1026.09 1026.69 1027.11 1027.35 1027.43 1027.39 1027.29 1027.16
1026.58 1026.40 1026.15 1025.86 1025.53 1025.16 1024.77 1024.32 1023.81 1023.22 1022.58 1021.90 1021.24 1020.65 1020.23 1020.02 1020.06 1020.35 1020.86 1021.52 1022.22 1022.87 1023.38 1023.67 1023.74 1023.61 1023.34 1023.03 1022.77 1022.65 1022.76 1023.11 1023.68 1024.43 1025.27 1026.12 1026.90 1027.52 1027.96 1028.22 1028.31 1028.27 1028.17 1028.05
1027.48 1027.21 1026.86 1026.47 1026.05 1025.62 1025.18 1024.73 1024.25 1023.72 1023.15 1022.56 1021.98 1021.48 1021.12 1020.98 1021.09 1021.44 1022.02 1022.74 1023.50 1024.22 1024.77 1025.09 1025.17 1025.01 1024.69 1024.30 1023.95 1023.74 1023.75 1024.02 1024.52 1025.21 1026.02 1026.86 1027.62 1028.26 1028.71 1028.98 1029.09 1029.07 1028.99 1028.89
1028.45 1028.09 1027.65 1027.17 1026.68 1026.20 1025.75 1025.31 1024.86 1024.39 1023.89 1023.37 1022.85 1022.41 1022.10 1021.99 1022.12 1022.50 1023.10 1023.86 1024.67 1025.43 1026.03 1026.39 1026.49 1026.35 1026.01 1025.59 1025.18 1024.89 1024.81 1024.99 1025.40 1026.02 1026.76 1027.55 1028.28 1028.90 1029.36 1029.64 1029.78 1029.79 1029.74 1029.67
1029.39 1028.96 1028.44 1027.89 1027.35 1026.85 1026.40 1025.99 1025.60 1025.20 1024.76 1024.31 1023.85 1023.45 1023.16 1023.06 1023.19 1023.55 1024.14 1024.89 1025.71 1026.49 1027.12 1027.53 1027.67 1027.56 1027.25 1026.83 1026.40 1026.07 1025.93 1026.02 1026.35 1026.87 1027.53 1028.24 1028.92 1029.51 1029.95 1030.25 1030.40 1030.46 1030.45 1030.41
1030.20 1029.69 1029.12 1028.53 1027.97 1027.48 1027.06 1026.70 1026.37 1026.05 1025.70 1025.32 1024.93 1024.57 1024.30 1024.19 1024.29 1024.62 1025.16 1025.86 1026.65 1027.42 1028.06 1028.50 1028.69 1028.64 1028.38 1028.00 1027.60 1027.27 1027.09 1027.13 1027.37 1027.81 1028.37 1028.99 1029.59 1030.12 1030.54 1030.83 1031.01 1031.10 1031.13 1031.14
1030.77 1030.21 1029.60 1028.99 1028.44 1027.96 1027.58 1027.29 1027.05 1026.82 1026.57 1026.29 1025.98 1025.69 1025.45 1025.35 1025.42 1025.69 1026.17 1026.80 1027.52 1028.24 1028.86 1029.31 1029.55 1029.56 1029.38 1029.08 1028.75 1028.45 1028.29 1028.30 1028.49 1028.83 1029.30 1029.82 1030.34 1030.80 1031.17 1031.44 1031.63 1031.74 1031.80 1031.84
1031.05 1030.46 1029.83 1029.21 1028.66 1028.22 1027.88 1027.66 1027.50 1027.38 1027.25 1027.09 1026.90 1026.71 1026.54 1026.47 1026.53 1026.76 1027.16 1027.70 1028.33 1028.98 1029.55 1030.00 1030.26 1030.34 1030.25 1030.06 1029.82 1029.60 1029.49 1029.50 1029.66 1029.94 1030.32 1030.75 1031.17 1031.55 1031.86 1032.09 1032.26 1032.38 1032.46 1032.51
1031.07 1030.46 1029.82 1029.20 1028.65 1028.22 1027.92 1027.74 1027.67 1027.65 1027.65 1027.63 1027.59 1027.52 1027.47 1027.47 1027.56 1027.77 1028.10 1028.56 1029.09 1029.64 1030.15 1030.56 1030.84 1030.97 1030.98 1030.90 1030.77 1030.67 1030.63 1030.68 1030.83 1031.08 1031.39 1031.73 1032.05 1032.34 1032.58 1032.76 1032.90 1032.99 1033.06 1033.10
1030.93 1030.31 1029.66 1029.03 1028.47 1028.03 1027.72 1027.57 1027.54 1027.60 1027.71 1027.84 1027.96 1028.06 1028.15 1028.26 1028.42 1028.64 1028.94 1029.32 1029.75 1030.21 1030.64 1031.00 1031.28 1031.46 1031.55 1031.58 1031.57 1031.58 1031.64 1031.75 1031.93 1032.16 1032.42 1032.68 1032.92 1033.13 1033.29 1033.40 1033.48 1033.53 1033.57 1033.59
1030.76 1030.16 1029.51 1028.86 1028.26 1027.77 1027.41 1027.22 1027.19 1027.29 1027.49 1027.74 1028.01 1028.28 1028.54 1028.79 1029.04 1029.31 1029.61 1029.94 1030.29 1030.66 1031.01 1031.32 1031.58 1031.79 1031.95 1032.07 1032.19 1032.31 1032.46 1032.64 1032.85 1033.08 1033.31 1033.52 1033.69 1033.82 1033.91 1033.95 1033.97 1033.97 1033.96 1033.94
1030.72 1030.15 1029.51 1028.82 1028.16 1027.57 1027.13 1026.85 1026.76 1026.84 1027.07 1027.40 1027.80 1028.22 1028.63 1029.02 1029.39 1029.73 1030.05 1030.36 1030.66 1030.95 1031.23 1031.50 1031.74 1031.96 1032.18 1032.38 1032.59 1032.81 1033.05 1033.30 1033.55 1033.79 1034.00 1034.17 1034.30 1034.37 1034.39 1034.38 1034.35 1034.29 1034.23 1034.16
1030.88 1030.37 1029.73 1029.00 1028.25 1027.55 1026.97 1026.56 1026.36 1026.37 1026.57 1026.93 1027.39 1027.92 1028.46 1028.98 1029.45 1029.87 1030.23 1030.54 1030.81 1031.06 1031.29 1031.52 1031.76 1032.00 1032.25 1032.52 1032.80 1033.10 1033.40 1033.70 1033.98 1034.23 1034.44 1034.60 1034.69 1034.73 1034.72 1034.67 1034.60 1034.50 1034.40 1034.28
1031.27 1030.82 1030.19 1029.42 1028.57 1027.74 1027.00 1026.43 1026.08 1025.96 1026.09 1026.42 1026.90 1027.48 1028.10 1028.71 1029.26 1029.74 1030.15 1030.47 1030.74 1030.98 1031.19 1031.41 1031.64 1031.90 1032.19 1032.51 1032.85 1033.20 1033.55 1033.88 1034.19 1034.45 1034.65 1034.80 1034.89 1034.92 1034.90 1034.84 1034.75 1034.63 1034.50 1034.34
1031.80 1031.40 1030.78 1029.97 1029.04 1028.08 1027.18 1026.44 1025.93 1025.67 1025.69 1025.94 1026.39 1026.97 1027.62 1028.27 1028.87 1029.40 1029.83 1030.18 1030.47 1030.71 1030.93 1031.16 1031.42 1031.72 1032.05 1032.41 1032.79 1033.17 1033.55 1033.90 1034.21 1034.47 1034.68 1034.84 1034.94 1034.98 1034.98 1034.93 1034.84 1034.72 1034.57 1034.39
1032.33 1031.97 1031.35 1030.50 1029.49 1028.43 1027.40 1026.52 1025.86 1025.48 1025.38 1025.54 1025.92 1026.47 1027.09 1027.74 1028.35 1028.89 1029.34 1029.71 1030.01 1030.28 1030.54 1030.81 1031.12 1031.46 1031.84 1032.25 1032.66 1033.07 1033.46 1033.82 1034.13 1034.39 1034.60 1034.76 1034.88 1034.96 1034.98 1034.97 1034.91 1034.81 1034.66 1034.47
1032.70 1032.34 1031.70 1030.82 1029.76 1028.62 1027.52 1026.55 1025.80 1025.32 1025.12 1025.21 1025.52 1026.00 1026.58 1027.18 1027.76 1028.28 1028.73 1029.10 1029.43 1029.74 1030.04 1030.38 1030.75 1031.16 1031.60 1032.06 1032.51 1032.94 1033.34 1033.69 1033.99 1034.25 1034.46 1034.64 1034.78 1034.89 1034.96 1034.99 1034.97 1034.89 1034.75 1034.56
1032.76 1032.36 1031.68 1030.76 1029.67 1028.51 1027.39 1026.39 1025.62 1025.11 1024.88 1024.91 1025.17 1025.59 1026.10 1026.65 1027.17 1027.65 1028.07 1028.44 1028.78 1029.12 1029.48 1029.88 1030.33 1030.81 1031.33 1031.84 1032.34 1032.80 1033.21 1033.55 1033.85 1034.10 1034.31 1034.50 1034.66 1034.80 1034.91 1034.98 1035.00 1034.95 1034.82 1034.63
1032.46 1031.97 1031.23 1030.27 1029.18 1028.04 1026.95 1026.00 1025.27 1024.80 1024.59 1024.62 1024.86 1025.24 1025.69 1026.17 1026.64 1027.05 1027.43 1027.77 1028.12 1028.47 1028.88 1029.34 1029.86 1030.42 1031.01 1031.58 1032.13 1032.62 1033.04 1033.39 1033.69 1033.93 1034.15 1034.34 1034.52 1034.68 1034.82 1034.92 1034.96 1034.93 1034.82 1034.62
1031.82 1031.21 1030.38 1029.39 1028.31 1027.22 1026.22 1025.38 1024.76 1024.39 1024.25 1024.34 1024.59 1024.95 1025.36 1025.79 1026.18 1026.53 1026.85 1027.15 1027.48 1027.84 1028.27 1028.78 1029.35 1029.97 1030.62 1031.25 1031.84 1032.37 1032.81 1033.18 1033.48 1033.72 1033.94 1034.14 1034.32 1034.50 1034.66 1034.77 1034.83 1034.81 1034.69 1034.49
1030.94 1030.19 1029.27 1028.25 1027.20 1026.20 1025.33 1024.63 1024.16 1023.92 1023.90 1024.07 1024.36 1024.73 1025.12 1025.50 1025.83 1026.11 1026.36 1026.62 1026.90 1027.25 1027.68 1028.20 1028.80 1029.46 1030.15 1030.82 1031.45 1032.00 1032.47 1032.86 1033.17 1033.43 1033.65 1033.85 1034.05 1034.23 1034.38 1034.50 1034.55 1034.53 1034.41 1034.20
1029.95 1029.06 1028.07 1027.04 1026.05 1025.15 1024.42 1023.89 1023.58 1023.50 1023.61 1023.87 1024.22 1024.61 1024.99 1025.32 1025.59 1025.81 1026.00 1026.19 1026.43 1026.73 1027.13 1027.64 1028.23 1028.90 1029.59 1030.28 1030.93 1031.51 1032.00 1032.41 1032.75 1033.02 1033.26 1033.47 1033.67 1033.84 1033.99 1034.10 1034.14 1034.10 1033.97 1033.75
1028.96 1027.97 1026.95 1025.94 1025.02 1024.25 1023.66 1023.30 1023.15 1023.21 1023.44 1023.78 1024.19 1024.59 1024.96 1025.26 1025.48 1025.64 1025.77 1025.90 1026.07 1026.32 1026.66 1027.12 1027.68 1028.30 1028.97 1029.65 1030.29 1030.88 1031.39 1031.83 1032.19 1032.49 1032.75 1032.97 1033.17 1033.35 1033.49 1033.57 1033.60 1033.54 1033.40 1033.17
1028.03 1027.01 1026.00 1025.06 1024.25 1023.61 1023.18 1022.97 1022.96 1023.14 1023.46 1023.86 1024.29 1024.70 1025.05 1025.31 1025.49 1025.60 1025.68 1025.75 1025.85 1026.03 1026.30 1026.69 1027.17 1027.73 1028.34 1028.97 1029.58 1030.16 1030.67 1031.12 1031.51 1031.85 1032.13 1032.38 1032.59 1032.77 1032.90 1032.97 1032.97 1032.90 1032.75 1032.52
1027.17 1026.19 1025.26 1024.44 1023.78 1023.29 1023.01 1022.94 1023.05 1023.31 1023.67 1024.09 1024.52 1024.91 1025.23 1025.46 1025.60 1025.68 1025.70 1025.72 1025.77 1025.88 1026.07 1026.36 1026.74 1027.21 1027.73 1028.28 1028.84 1029.38 1029.89 1030.35 1030.76 1031.13 1031.45 1031.72 1031.95 1032.13 1032.26 1032.32 1032.30 1032.22 1032.06 1031.85
Thickness
5509 5508 5507 5513 5522 5527 5528 5526 5526 5529 5535 5537 5535 5537 5541 5545 5546 5545 5547 5549 5551 5553 5556 5559 5562 5565 5568 5571 5573 5575 5576 5578 5579 5579 5579 5579 5578 5578 5578 5578 5578 5579 5579 5580
5496 5494 5502 5511 5517 5518 5517 5515 5514 5518 5526 5527 5524 5527 5531 5534 5536 5537 5538 5538 5539 5542 5545 5547 5550 5552 5556 5558 5561 5564 5565 5566 5568 5568 5568 5567 5567 5566 5566 5566 5566 5567 5567 5568
5483 5486 5498 5504 5503 5507 5507 5507 5507 5510 5512 5515 5515 5514 5520 5523 5525 5527 5527 5528 5529 5532 5533 5535 5538 5540 5542 5545 5547 5551 5552 5554 5556 5557 5557 5556 5556 5555 5555 5555 5555 5555 5555 5555
5473 5480 5490 5492 5493 5498 5498 5503 5505 5505 5503 5500 5507 5501 5510 5513 5514 5514 5513 5513 5514 5518 5520 5522 5525 5527 5529 5531 5534 5537 5539 5542 5543 5544 5544 5544 5543 5542 5543 5543 5542 5542 5542 5543
5468 5473 5479 5483 5487 5491 5492 5497 5498 5499 5496 5491 5495 5492 5498 5504 5504 5503 5502 5502 5503 5505 5508 5510 5512 5514 5517 5519 5521 5524 5526 5529 5530 5531 5531 5531 5530 5530 5530 5530 5530 5530 5530 5531
5466 5471 5472 5476 5482 5487 5489 5489 5489 5485 5483 5479 5490 5488 5491 5490 5499 5497 5493 5492 5492 5494 5495 5497 5499 5502 5504 5506 5508 5511 5513 5515 5517 5518 5518 5518 5518 5518 5518 5518 5517 5517 5518 5518
5460 5464 5466 5471 5476 5479 5481 5474 5462 5461 5455 5465 5481 5483 5484 5487 5490 5489 5486 5483 5482 5482 5483 5485 5487 5489 5491 5493 5495 5498 5500 5502 5503 5504 5505 5506 5505 5505 5505 5504 5504 5505 5505 5505
5448 5449 5457 5463 5466 5470 5472 5471 5460 5460 5460 5463 5472 5475 5477 5479 5480 5479 5477 5474 5473 5471 5472 5474 5475 5476 5478 5480 5482 5485 5487 5489 5490 5491 5492 5493 5493 5492 5492 5492 5492 5492 5492 5492
5438 5445 5455 5460 5462 5468 5467 5462 5464 5455 5446 5450 5459 5462 5468 5472 5469 5468 5466 5464 5462 5462 5462 5463 5464 5465 5467 5469 5470 5472 5474 5476 5477 5478 5480 5481 5480 5480 5480 5479 5479 5479 5479 5479
5435 5436 5447 5453 5461 5460 5461 5459 5449 5442 5441 5445 5449 5454 5461 5465 5461 5459 5457 5455 5454 5453 5452 5453 5454 5456 5457 5458 5459 5460 5462 5463 5465 5466 5468 5468 5468 5468 5468 5468 5467 5466 5466 5466
5436 5433 5439 5444 5443 5446 5451 5452 5447 5438 5437 5442 5442 5454 5462 5459 5458 5454 5452 5450 5447 5445 5444 5444 5444 5445 5446 5447 5448 5449 5450 5452 5453 5455 5456 5456 5456 5456 5456 5455 5454 5454 5454 5453
5434 5426 5424 5434 5441 5443 5445 5445 5443 5437 5431 5435 5438 5446 5459 5455 5452 5449 5446 5444 5441 5439 5437 5436 5436 5435 5436 5436 5437 5438 5440 5441 5442 5443 5444 5444 5444 5444 5443 5442 5442 5441 5441 5440
5433 5423 5421 5431 5433 5436 5438 5440 5437 5432 5426 5421 5424 5442 5452 5448 5446 5443 5440 5436 5434 5432 5431 5429 5428 5427 5427 5426 5427 5428 5429 5430 5431 5431 5432 5432 5432 5432 5431 5430 5429 5429 5428 5427
5433 5416 5419 5431 5433 5429 5429 5433 5434 5431 5419 5416 5425 5438 5444 5442 5439 5436 5433 5430 5427 5426 5424 5421 5419 5418 5418 5417 5417 5417 5418 5419 5420 5420 5420 5420 5420 5419 5419 5418 5417 5416 5415 5414
5427 5411 5407 5412 5416 5420 5422 5427 5428 5426 5426 5424 5433 5433 5443 5441 5436 5433 5430 5427 5425 5423 5419 5417 5414 5412 5410 5409 5408 5408 5408 5409 5409 5409 5409 5408 5408 5408 5407 5406 5405 5404 5402 5401
5417 5407 5404 5405 5412 5415 5417 5423 5424 5424 5424 5423 5426 5431 5441 5436 5432 5428 5426 5425 5422 5419 5416 5413 5411 5408 5405 5403 5402 5400 5400 5399 5399 5399 5398 5398 5397 5397 5396 5394 5394 5392 5390 5389
5409 5400 5397 5398 5397 5407 5409 5427 5424 5425 5427 5427 5427 5437 5437 5433 5429 5426 5424 5422 5419 5417 5413 5409 5406 5403 5401 5397 5395 5393 5392 5391 5390 5389 5388 5387 5386 5386 5384 5383 5382 5380 5378 5376
5406 5394 5378 5377 5391 5414 5437 5437 5430 5428 5429 5429 5433 5434 5431 5430 5427 5423 5421 5418 5415 5413 5409 5405 5402 5398 5394 5391 5388 5386 5384 5383 5381 5380 5378 5377 5376 5375 5373 5371 5369 5367 5365 5363
5410 5398 5375 5370 5380 5394 5428 5435 5430 5427 5432 5433 5429 5429 5426 5424 5422 5420 5419 5416 5413 5409 5405 5401 5397 5393 5389 5385 5382 5380 5377 5375 5373 5372 5370 5368 5366 5365 5362 5360 5357 5356 5354 5351
5405 5397 5377 5367 5388 5406 5445 5441 5433 5432 5431 5437 5429 5427 5422 5419 5416 5419 5419 5413 5408 5405 5401 5396 5392 5387 5383 5379 5376 5373 5370 5367 5365 5363 5361 5359 5357 5354 5352 5349 5347 5345 5342 5340
5393 5385 5376 5369 5374 5401 5432 5432 5430 5426 5441 5441 5429 5426 5420 5417 5420 5417 5413 5408 5404 5399 5395 5390 5385 5381 5377 5373 5370 5366 5363 5360 5358 5355 5352 5350 5347 5344 5342 5339 5336 5333 5331 5328
5398 5386 5377 5369 5378 5414 5435 5426 5428 5439 5441 5436 5429 5424 5419 5416 5413 5409 5406 5402 5397 5392 5388 5383 5378 5374 5369 5366 5362 5359 5355 5353 5350 5346 5343 5340 5338 5334 5332 5328 5325 5322 5319 5316
5409 5415 5408 5410 5431 5443 5434 5436 5438 5435 5433 5431 5426 5422 5417 5411 5407 5404 5400 5396 5391 5387 5382 5378 5372 5368 5363 5359 5356 5352 5349 5345 5341 5337 5334 5331 5328 5325 5321 5317 5314 5310 5307 5303
5413 5414 5413 5412 5431 5435 5432 5432 5432 5430 5429 5427 5423 5418 5412 5408 5404 5399 5395 5391 5386 5381 5376 5371 5366 5362 5357 5352 5348 5345 5341 5336 5332 5328 5325 5322 5319 5315 5311 5307 5303 5299 5296 5292
5421 5411 5410 5415 5429 5429 5433 5433 5434 5430 5425 5421 5417 5413 5409 5404 5399 5395 5391 5386 5381 5376 5370 5364 5359 5356 5351 5346 5341 5337 5333 5328 5324 5321 5317 5313 5309 5305 5301 5297 5292 5289 5286 5281
5422 5423 5423 5438 5443 5437 5445 5441 5434 5428 5424 5419 5414 5409 5405 5401 5397 5392 5386 5381 5375 5369 5363 5357 5352 5348 5344 5339 5334 5330 5325 5321 5316 5313 5308 5304 5300 5295 5291 5287 5284 5280 5277 5273